Weather in Novoselovo

Russia / Sakhalin District     47°38′58″N   141°59′33″E
temp.,
°C
wind,
m/s
gust,
m/s
humid.,
%
clouds,
%
prec.,
mm/h
press.,
hPa
HPBL,
m
2 march, tue
tue223:00−10ese1284100 0.1 1024191
02:00−10n5681100 0.8 1024735
05:00−11n3484100 1.0 1023492
08:00−10nne5685100 0.3 1023621
11:00−10ne3478100 0.3 1022720
14:00−9ene4473100 0.1 1021893
17:00−10ene6780100 0.1 1020773
20:00−12ene5886100 0.1 1020525
3 march, wed
wed323:00−13ene5989100 0.1 1022415
02:00−14ene5780100 0.1 1022524
05:00−13nne598995 0.3 1023722
08:00−11nnw7980100 0.8 10251075
11:00−10nw6861100 1.0 10271537
14:00−9wnw675799 0.0 10261367
17:00−8wsw685986 0.0 10261369
20:00−7sw8105981 0.0 10261175
4 march, thu
thu423:00−5sw12158690 0.1 10251306
02:00−3sw141776100 0.2 10221383
05:00−2sw141994100 0.9 10201399
08:00−1sw151995100 3.2 10181385
11:000sw141998100 6.3 10161040
14:00+1sw12178899 1.2 1015917
17:00+1sw11179299 1.3 1015739
20:00+1ssw111791100 0.1 1014722
5 march, fri
fri523:00+1ssw121994100 0.3 1013798
02:00+1ssw152197100 1.7 1010742
05:00+2sw132193100 2.7 1007823
08:00+2sw111890100 0.0 1007639
11:00+1w71285100 0.0 1010400
14:00−2n2285100 0.0 1012400
17:00−3nnw4684100 0.0 1013484
20:00−6n5688100 0.0 1015450
6 march, sat
sat623:00−8n8985100 0.3 1018910
02:00−11ene6788100 0.6 1018499
05:00−14e448175 0.8 1019231
08:00−14e2386100 0.4 1020168
11:00−12nnw3490100 1.1 1021541
14:00−12n566397 0.4 10221207
17:00−12nw998094 1.2 10221222
20:00−12nw7871100 0.3 10231269